"Pseudo-MPEC" for W10506

Created 2023 Nov 25 5:22:14 UT using Find_Orb

Click here for an explanation of pseudo-MPECs

 
 Astrometry: 
     W10506 * C2023 11 19]Fe5cfc:*DAstrometryLH2Y/Oredacted;4Fg9mclickr,j1)8*O18
     W10506   C2023 11 19A8F`M07$05*3HcBwx^w?Rm2JW5]oshereXbt5^ELb/blBd0efor;O18
     W10506   C2023 11 19.#lM/`:3:KwtPV\JNr.MxJ]:pYXxshV@pe0S@5explanationUq/O18

Station data:
(O18) WFST, Lenghu  (N38.607601 E93.895220).

Orbital elements:  W10506
   Perihelion 2024 Feb 13.50219 +/- 72.5 TT = 12:03:09 (JD 2460354.00219)
Epoch 2023 Nov 20.0 TT = JDT 2460268.5   Earth MOID: 0.1400      AutoNEOCP
M 300.68457798 +/- 48               (J2000 ecliptic)
n   0.69372983 +/- 0.399            Peri.  294.09381 +/- 100
a   1.26379257 +/- 0.485            Node   238.14965 +/- 25
e   0.4595911 +/- 0.28              Incl.   27.97297 +/- 21
P   1.42/518.92d           H 23.54  G  0.15   U 12.1  SR
q 0.68296466 +/- 0.324    Q 1.84462049 +/- 23.4
From 3 observations 2023 Nov. 19 (18.8 min); mean residual 0".03
Residuals in arcseconds: 
231119 O18  .03+  .01+    231119 O18  .05-  .02-    231119 O18  .03+  .01+    

Ephemerides (geocentric):
Date (UTC) HH   RA             Dec           delta  r     elong  mag " sig PA
---- --------  ------------   ------------  ------ ------ -----  --- --------
2023 11 25 05  04 01 42.347   +08 16 27.49  .19719 1.1806 167.6 21.0  46d 104
2023 11 25 06  04 01 33.191   +08 10 07.09  .19696 1.1803 167.5 21.0  46d 104
2023 11 25 07  04 01 24.018   +08 03 45.82  .19672 1.1800 167.4 21.0  46d 104
2023 11 25 08  04 01 14.828   +07 57 23.67  .19649 1.1797 167.3 21.0  46d 104
2023 11 25 09  04 01 05.621   +07 51 00.65  .19625 1.1793 167.2 21.0  46d 104
2023 11 25 10  04 00 56.397   +07 44 36.76  .19602 1.1790 167.1 21.0  46d 104
2023 11 25 11  04 00 47.155   +07 38 11.99  .19579 1.1787 167.0 21.0  46d 103
2023 11 25 12  04 00 37.897   +07 31 46.35  .19556 1.1784 166.8 21.0  46d 103
2023 11 25 13  04 00 28.622   +07 25 19.84  .19533 1.1781 166.7 21.0  46d 103
2023 11 25 14  04 00 19.329   +07 18 52.45  .19510 1.1778 166.6 21.0  46d 103
2023 11 25 15  04 00 10.019   +07 12 24.20  .19487 1.1775 166.5 21.0  46d 103
2023 11 25 16  04 00 00.693   +07 05 55.09  .19464 1.1772 166.4 21.0  46d 103
2023 11 25 17  03 59 51.349   +06 59 25.10  .19442 1.1769 166.2 21.0  46d 103
2023 11 25 18  03 59 41.988   +06 52 54.25  .19419 1.1765 166.1 21.0  46d 103
2023 11 25 19  03 59 32.609   +06 46 22.54  .19397 1.1762 166.0 21.0  46d 103
2023 11 25 20  03 59 23.214   +06 39 49.97  .19374 1.1759 165.9 21.0  46d 103
2023 11 25 21  03 59 13.802   +06 33 16.53  .19352 1.1756 165.8 21.0  46d 103
2023 11 25 22  03 59 04.372   +06 26 42.23  .19330 1.1753 165.6 21.0  46d 103
2023 11 25 23  03 58 54.925   +06 20 07.08  .19308 1.1750 165.5 21.0  46d 103
2023 11 26 00  03 58 45.461   +06 13 31.07  .19286 1.1747 165.4 21.1  46d 103
2023 11 26 01  03 58 35.980   +06 06 54.20  .19264 1.1744 165.3 21.1  46d 103
2023 11 26 02  03 58 26.482   +06 00 16.48  .19242 1.1741 165.1 21.1  46d 103
2023 11 26 03  03 58 16.967   +05 53 37.91  .19220 1.1737 165.0 21.1  46d 103
2023 11 26 04  03 58 07.434   +05 46 58.48  .19199 1.1734 164.9 21.1  46d 103
2023 11 26 05  03 57 57.884   +05 40 18.21  .19177 1.1731 164.8 21.1  46d 103
2023 11 26 06  03 57 48.317   +05 33 37.09  .19156 1.1728 164.6 21.1  46d 103
2023 11 26 07  03 57 38.733   +05 26 55.12  .19135 1.1725 164.5 21.1  46d 103
2023 11 26 08  03 57 29.131   +05 20 12.31  .19113 1.1722 164.4 21.1  46d 103
2023 11 26 09  03 57 19.513   +05 13 28.66  .19092 1.1719 164.2 21.1  47d 103
2023 11 26 10  03 57 09.877   +05 06 44.17  .19071 1.1716 164.1 21.1  47d 103
2023 11 26 11  03 57 00.224   +04 59 58.84  .19050 1.1712 164.0 21.1  47d 103
2023 11 26 12  03 56 50.553   +04 53 12.67  .19029 1.1709 163.8 21.1  47d 103
2023 11 26 13  03 56 40.866   +04 46 25.67  .19009 1.1706 163.7 21.1  47d 103
2023 11 26 14  03 56 31.161   +04 39 37.84  .18988 1.1703 163.6 21.1  47d 103
2023 11 26 15  03 56 21.439   +04 32 49.17  .18968 1.1700 163.4 21.1  47d 103
2023 11 26 16  03 56 11.699   +04 25 59.68  .18947 1.1697 163.3 21.1  47d 103
2023 11 26 17  03 56 01.942   +04 19 09.36  .18927 1.1694 163.2 21.1  47d 103
2023 11 26 18  03 55 52.168   +04 12 18.21  .18907 1.1691 163.0 21.1  47d 103
2023 11 26 19  03 55 42.377   +04 05 26.25  .18886 1.1687 162.9 21.1  47d 103
2023 11 26 20  03 55 32.569   +03 58 33.46  .18866 1.1684 162.8 21.1  47d 103
2023 11 26 21  03 55 22.743   +03 51 39.86  .18846 1.1681 162.6 21.1  47d 103
2023 11 26 22  03 55 12.899   +03 44 45.44  .18827 1.1678 162.5 21.1  47d 103
2023 11 26 23  03 55 03.039   +03 37 50.21  .18807 1.1675 162.4 21.1  47d 103
2023 11 27 00  03 54 53.161   +03 30 54.17  .18787 1.1672 162.2 21.1  47d 103
2023 11 27 01  03 54 43.266   +03 23 57.32  .18768 1.1669 162.1 21.1  47d 103
2023 11 27 02  03 54 33.354   +03 16 59.67  .18748 1.1666 162.0 21.1  47d 103
2023 11 27 03  03 54 23.424   +03 10 01.21  .18729 1.1662 161.8 21.1  47d 103
2023 11 27 04  03 54 13.477   +03 03 01.95  .18709 1.1659 161.7 21.1  48d 103